This demonstration page uses our WeatherBlox Daily Observations layout. Learn more.

Left ArrowRight Arrow

Hourly Observations for March 13, 2019

Temp ( °F °C ) Dew Point ( °F °C ) Humidity (%) Winds ( mph kmh ) Pressure ( in mb ) Visibility ( mi km ) Precip ( " mm )
12:14 am 00:14 Mostly Cloudy with Drizzle 43 6.1 41 5 93 93 SSE 13 20 29.76 1008 0 0 0.00 0.03
12:52 am 00:52 Mostly Cloudy with Light Rain 44 6.7 42 5.6 93 93 SSE 12 19 29.72 1007 0 0 0.01 0.25
1:09 am 01:09 Cloudy with Thunderstorms 42 5.6 40 4.4 92 92 SSE 12 19 29.73 1007 0 0 0.05 1.27
1:52 am 01:52 Cloudy with Thunderstorms 42 5.6 40 4.4 92 92 SE 15 24 29.69 1006 1 2 0.09 2.29
2:09 am 02:09 Mostly Cloudy with Drizzle 41 5 40 4.4 96 96 SSE 8 13 29.70 1006 1 2 0.00 0.03
2:12 am 02:12 Cloudy with Thunderstorms 41 5 40 4.4 96 96 SSE 7 11 29.70 1006 1 2 0.00 0.03
2:52 am 02:52 Cloudy with Thunderstorms 41 5 40 4.4 96 96 SE 10 17 29.66 1004 1 2 0.02 0.51
3:04 am 03:04 Cloudy with Drizzle 42 5.6 40 4.4 92 92 SSE 10 17 29.67 1005 1 2 0.00 0.03
3:52 am 03:52 Mostly Cloudy with Light Rain 42 5.6 41 5 96 96 NW 5 7 29.65 1004 0 0 0.02 0.51
4:52 am 04:52 Cloudy with Fog 42 5.6 41 5 96 96 ENE 5 7 29.62 1003 0 0 0.00 0.03
5:52 am 05:52 Mostly Cloudy with Fog 43 6.1 41 5 93 93 E 7 11 29.59 1002 1 2 0.00 0.00
6:52 am 06:52 Mostly Cloudy with Drizzle 43 6.1 42 5.6 97 97 ESE 10 17 29.54 1000 1 2 0.00 0.03
7:52 am 07:52 Mostly Cloudy with Drizzle 44 6.7 42 5.6 93 93 SE 12 19 29.50 999 1 2 0.00 0.03
8:52 am 08:52 Mostly Cloudy with Fog 44 6.7 43 6.1 96 96 SE 14 22 29.46 998 1 2 0.00 0.03
9:30 am 09:30 Mostly Cloudy with Light Rain 44 6.7 43 6.1 96 96 SE 16 26 29.47 998 1 1 0.02 0.51
9:42 am 09:42 Cloudy with Thunderstorms 45 7.2 43 6.1 93 93 SE 16 26 29.46 998 1 1 0.06 1.52
9:52 am 09:52 Cloudy with Rain 45 7.2 44 6.7 97 97 SE 15 24 29.44 997 2 3 0.11 2.79
10:07 am 10:07 Cloudy with Rain 45 7.2 43 6.1 93 93 SE 16 26 29.44 997 3 5 0.06 1.52
10:52 am 10:52 Cloudy with Rain 46 7.8 44 6.7 93 93 ESE 21 33 29.38 995 3 5 0.22 5.59
11:03 am 11:03 Cloudy with Heavy Rain 47 8.3 45 7.2 93 93 ESE 25 41 29.38 995 1 2 0.05 1.27
11:16 am 11:16 Cloudy with Rain 46 7.8 44 6.7 93 93 ESE 24 39 29.37 995 3 5 0.14 3.56
11:46 am 11:46 Cloudy with Heavy Rain 46 8 45 7 93 93 SE 21 33 29.33 993 2 3 0.18 4.57
11:52 am 11:52 Cloudy with Heavy Rain 47 8.3 44 6.7 90 90 SE 20 31 29.30 992 2 3 0.22 5.59
12:52 pm 12:52 Cloudy with Light Rain 48 8.9 46 7.8 93 93 SE 26 43 29.26 991 4 6 0.11 2.79
1:35 pm 13:35 Cloudy with Light Rain 51 10.6 47 8.3 86 86 SE 29 46 29.23 990 10 16 0.02 0.51
1:52 pm 13:52 Cloudy with Light Rain 52 11.1 48 8.9 86 86 SE 24 39 29.19 989 10 16 0.02 0.51
2:52 pm 14:52 Mostly Cloudy with Light Rain 52 11.1 49 9.4 89 89 SE 22 35 29.18 988 10 16 0.01 0.25
3:05 pm 15:05 Mostly Cloudy 54 12.2 50 10 87 87 SE 23 37 29.15 987 10 16 0.00 0.03
3:40 pm 15:40 Mostly Cloudy 56 13.3 51 10.6 84 84 SSE 24 39 29.16 987 10 16 0.00 0.03
3:52 pm 15:52 Mostly Cloudy 57 13.9 51 10.6 81 81 SSE 25 41 29.16 987 10 16 0.00 0.03
4:32 pm 16:32 Mostly Cloudy 58 14.4 52 11.1 81 81 SE 17 28 29.14 987 10 16 0.00 0.00
4:52 pm 16:52 Partly Cloudy 59 15 51 10.6 75 75 SSE 18 30 29.14 987 10 16 0.00 0.00
5:52 pm 17:52 Mostly Cloudy 60 15.6 47 8.3 62 62 S 22 35 29.16 988 10 16 0.00 0.00
6:52 pm 18:52 Mostly Cloudy 56 13.3 47 8.3 72 72 SE 18 30 29.18 988 10 16 0.00 0.00
7:52 pm 19:52 Mostly Cloudy 53 11.7 46 7.8 77 77 SSE 20 31 29.19 988 10 16 0.00 0.00
8:52 pm 20:52 Cloudy with Drizzle 53 11.7 45 7.2 74 74 SE 20 31 29.17 988 10 16 0.00 0.03
9:52 pm 21:52 Cloudy with Light Rain 53 11.7 45 7.2 74 74 SE 25 41 29.14 987 10 16 0.00 0.03
10:52 pm 22:52 Cloudy 53 11.7 44 6.7 72 72 SE 21 33 29.11 986 10 16 0.00 0.03
11:52 pm 23:52 Cloudy 53 11.7 45 7.2 74 74 SE 23 37 29.08 985 10 16 0.00 0.00

Powered by AerisWeather